Theta_e
291 291 290 289 289 289 289 289 289 289 289 288 288 288 287 287 287 287 287 286 286 286 286 286 286 286 286 285 285 285 285 285 285 285 285 285 284 284 284 283 283 283
291 290 290 289 289 289 289 289 289 289 289 288 288 288 287 287 287 286 286 286 286 286 286 286 286 285 286 285 285 286 286 285 285 285 284 284 284 284 283 283 283 282
290 289 289 289 289 289 289 289 289 289 288 288 288 288 287 287 286 286 286 286 286 286 286 285 285 285 285 285 285 285 285 285 285 284 284 284 284 283 283 283 282 282
290 289 289 290 289 289 289 288 288 288 288 288 288 288 287 287 286 286 286 286 286 286 286 285 285 285 285 286 286 285 285 285 285 284 284 283 283 283 283 283 282 282
289 289 289 289 289 289 288 288 288 288 288 288 288 287 287 287 286 286 286 286 286 286 286 286 285 286 286 286 286 285 285 285 284 284 283 283 283 283 283 282 282 282
289 289 289 289 289 288 288 288 288 288 288 288 288 287 287 287 286 286 286 286 286 286 286 286 286 286 286 286 285 285 284 284 284 284 283 283 283 283 282 282 282 281
289 289 289 289 288 288 288 288 288 288 288 288 287 287 287 287 286 286 286 286 286 286 286 285 286 286 286 286 285 285 284 284 283 283 283 283 283 282 282 282 281 281
289 289 288 288 288 288 288 288 288 288 288 288 287 287 287 287 287 287 287 286 286 286 285 285 285 286 286 286 285 285 284 283 283 283 283 282 282 282 282 282 281 281
289 289 288 288 288 287 287 288 288 288 288 287 287 287 286 286 287 287 286 286 285 285 285 285 286 286 285 285 285 284 284 283 283 282 282 282 282 282 282 281 281 281
289 288 288 288 288 287 287 287 287 287 287 287 287 287 286 286 286 286 286 285 285 285 285 285 286 286 285 285 284 284 283 283 282 282 282 282 282 282 281 281 281 280
289 288 288 288 288 287 287 287 287 287 287 287 287 287 286 286 286 286 285 285 285 285 285 286 286 286 285 285 284 283 283 282 282 282 282 282 281 281 281 281 280 280
289 288 288 288 288 288 287 287 287 287 287 287 287 287 286 286 286 286 285 285 285 285 286 286 286 285 285 284 284 283 283 282 282 281 281 281 281 281 281 280 280 280
289 288 288 288 288 288 287 287 287 287 287 287 286 286 286 286 286 286 285 285 285 285 286 286 286 285 285 284 283 283 282 282 282 281 281 281 281 281 280 280 280 280
288 288 288 288 288 287 287 286 287 287 287 287 286 286 286 287 286 286 285 284 285 285 286 286 285 285 285 284 283 283 282 282 281 281 281 281 280 280 280 280 280 279
288 287 288 287 287 286 286 286 286 287 287 286 286 286 287 287 286 285 285 284 285 285 286 285 285 285 285 284 283 283 282 282 281 281 281 280 280 280 280 280 279 279
287 287 287 287 286 286 286 286 286 287 286 286 286 286 286 286 286 285 285 285 285 285 286 285 285 285 284 284 283 283 282 282 281 281 281 280 280 280 280 279 279 279
286 286 286 286 286 286 286 286 286 286 286 286 286 286 286 286 285 285 285 285 285 286 286 286 286 285 284 283 283 283 282 282 281 281 281 280 280 280 279 279 279 279
286 286 285 285 285 285 286 286 286 286 286 286 286 286 286 285 285 285 285 285 285 286 286 286 286 285 284 283 283 283 282 281 281 281 281 280 280 280 279 279 279 279
285 285 285 285 285 285 286 286 286 286 286 286 286 286 285 285 284 284 285 285 285 286 286 286 286 285 284 283 283 283 282 282 281 282 282 281 280 280 279 279 279 279
285 285 285 285 285 285 285 285 285 286 286 286 286 285 285 284 284 284 285 285 286 286 286 286 286 285 284 283 283 283 282 282 282 282 282 281 280 280 279 279 279 279
285 285 285 284 284 284 284 284 285 286 286 286 285 285 285 285 285 285 285 285 286 286 286 286 286 285 284 284 283 283 282 281 282 283 283 282 281 280 279 279 279 279
285 285 284 284 284 284 283 284 284 285 285 285 285 284 285 285 285 285 285 286 286 286 286 286 286 285 284 284 283 283 281 280 281 283 283 283 282 280 280 279 279 279
285 285 284 284 284 283 283 284 284 284 284 284 284 284 284 285 285 285 285 286 286 286 286 286 286 285 285 284 283 282 281 280 281 282 282 283 282 281 280 279 279 278
285 285 285 284 284 283 284 284 284 284 284 284 284 284 285 285 285 285 285 285 285 286 286 286 286 286 285 284 284 282 281 281 281 281 282 282 282 281 280 279 279 279
286 285 285 285 284 284 284 284 283 283 283 283 284 284 285 285 285 285 285 285 285 285 285 285 286 285 285 284 284 282 280 280 280 280 281 282 282 281 280 279 279 279
286 286 285 285 285 285 284 284 284 283 283 283 283 283 283 283 283 284 284 285 285 285 285 285 285 285 285 284 283 282 280 280 280 280 281 282 282 281 280 279 279 279
Wind_Speed
41 41 41 40 39 38 37 36 34 32 31 30 28 27 26 24 22 21 20 19 18 17 17 16 15 14 14 13 12 11 11 10 10 10 8 7 7 7 7 7 7 6
41 41 41 40 39 38 36 34 32 31 30 29 27 26 25 24 22 21 19 19 18 17 16 15 14 13 13 12 10 9 9 8 8 8 6 6 7 7 6 6 6 5
41 41 41 40 39 38 35 34 32 31 30 29 27 26 25 24 23 21 19 18 18 17 16 15 14 13 11 11 9 7 7 6 6 6 6 6 6 6 6 6 5 5
42 41 41 39 38 37 36 35 33 31 30 29 27 26 25 24 23 21 20 18 17 17 16 15 14 13 11 10 8 7 6 5 5 6 6 6 6 6 6 5 5 5
42 41 40 39 38 37 36 35 34 32 31 29 28 27 26 25 24 22 21 19 18 17 16 16 14 13 11 9 8 6 6 5 6 7 6 6 7 6 6 6 5 5
42 41 41 40 39 38 37 35 34 33 31 30 29 28 26 25 24 23 21 20 18 17 17 16 15 13 11 10 8 7 6 6 7 7 7 7 7 7 7 7 6 5
43 42 41 40 40 39 37 36 34 33 32 31 29 28 27 26 24 23 21 20 19 18 17 16 15 13 11 10 9 8 8 8 8 8 8 8 8 8 8 7 7 6
44 43 42 41 41 39 38 37 35 34 33 32 30 29 28 26 25 23 21 20 19 18 17 16 14 12 11 10 9 9 9 9 10 10 10 10 10 9 8 8 8 8
44 44 43 42 42 41 39 38 36 35 34 32 31 30 28 26 24 23 22 21 20 19 18 17 14 12 11 10 10 10 10 11 11 11 11 11 10 10 9 9 9 10
45 44 44 43 43 42 40 39 37 36 35 33 32 30 29 27 25 23 23 22 21 20 19 16 14 12 12 11 11 12 12 12 11 11 11 11 11 11 11 11 10 10
45 45 45 44 43 43 41 40 38 37 36 34 32 31 29 28 26 25 24 23 22 21 19 16 14 13 14 13 13 13 12 12 11 11 12 11 11 11 11 11 11 10
45 46 46 45 44 43 42 41 39 38 36 35 33 32 30 29 27 26 25 24 23 21 19 16 15 15 15 14 14 13 13 12 12 12 12 12 12 12 12 11 11 10
45 45 45 45 44 43 42 41 40 39 37 35 34 32 31 29 28 27 26 24 23 22 19 16 16 16 16 15 15 14 13 13 13 12 12 12 12 12 12 11 11 11
44 44 44 44 43 43 43 42 41 39 37 36 34 33 31 30 28 28 27 26 24 21 19 18 18 17 17 17 16 15 14 14 13 13 12 12 12 12 12 12 12 12
42 42 42 43 43 43 43 42 41 40 38 36 35 33 31 29 29 29 28 27 25 22 20 20 19 18 18 17 16 15 15 14 14 13 13 12 12 12 12 13 13 13
40 41 42 42 43 43 43 43 42 41 39 37 35 34 32 31 30 30 29 28 26 24 23 21 20 19 19 18 16 15 15 15 14 14 13 12 12 13 14 14 14 14
38 40 41 42 43 43 43 43 42 41 39 38 36 35 33 32 32 32 31 29 27 25 24 23 22 21 19 19 17 16 16 16 15 14 13 13 13 14 15 15 14 14
37 39 40 41 42 42 43 43 42 41 40 39 38 37 35 35 34 34 32 30 28 26 24 23 22 21 20 20 19 18 17 16 15 14 14 13 14 15 15 16 15 15
37 38 39 41 41 42 42 42 42 42 41 40 39 38 37 36 36 35 33 31 30 27 26 24 23 22 22 21 20 19 18 18 17 15 15 14 15 16 17 17 16 16
36 37 38 39 40 41 41 41 42 42 42 41 40 39 39 38 37 36 34 33 31 28 27 26 25 24 24 23 22 20 19 19 18 16 16 16 17 18 18 18 17 17
35 37 37 38 38 39 40 41 42 42 42 41 41 40 40 39 38 37 36 34 32 30 29 28 27 26 26 25 23 22 21 21 20 18 18 18 19 19 19 19 18 18
36 37 37 37 37 38 39 40 42 43 42 42 41 40 40 39 39 39 38 36 34 33 32 31 29 28 27 27 25 24 23 23 23 21 20 20 21 21 20 20 19 19
37 37 36 36 36 37 39 41 42 43 42 41 41 40 40 41 41 41 40 38 37 36 35 34 31 30 29 29 28 26 26 26 26 25 23 23 23 23 22 21 21 21
35 36 36 36 37 39 41 42 42 42 42 42 42 42 42 43 43 42 41 40 39 38 37 36 33 31 31 31 30 29 28 28 28 27 26 26 25 25 25 24 23 23
35 36 37 38 39 41 42 42 41 40 40 41 42 42 43 42 42 42 42 42 41 40 39 37 35 33 33 33 32 30 30 31 30 30 29 29 28 28 28 27 26 25
36 37 38 39 40 41 41 41 40 39 39 40 41 41 41 40 40 41 42 43 43 42 40 39 37 35 34 35 34 32 32 32 33 33 33 32 31 30 30 29 28 26
Wind_Direction
169 168 167 167 166 166 164 163 160 158 157 155 154 152 151 150 150 150 148 145 144 141 138 136 133 130 127 126 124 118 113 109 107 109 115 119 119 119 120 124 128 134
172 171 171 170 169 168 166 164 162 160 159 158 156 155 154 154 154 154 152 150 149 147 143 142 139 135 132 130 127 121 114 110 114 122 131 133 133 133 132 135 139 139
175 174 174 173 172 170 168 166 164 163 161 160 160 159 158 157 157 158 158 156 154 152 150 148 144 141 139 133 129 125 118 119 133 142 149 152 148 150 149 147 151 154
178 178 177 176 174 172 170 168 167 166 165 164 164 163 162 161 161 162 162 163 161 158 156 154 151 147 145 140 135 132 132 144 161 164 166 168 163 166 169 167 172 176
181 180 179 178 177 174 173 171 170 169 169 168 167 167 166 165 166 166 167 168 167 165 162 159 158 155 151 148 141 142 156 173 183 182 181 181 179 182 186 189 193 192
183 183 181 181 179 177 176 174 173 172 172 172 171 170 170 169 170 171 171 172 172 172 169 166 165 160 155 153 151 156 173 188 198 195 193 198 198 198 198 200 207 209
185 185 184 183 182 181 180 178 177 176 176 176 175 173 174 174 175 175 175 176 177 177 175 173 170 163 158 158 160 171 186 198 207 206 205 210 211 209 206 207 216 223
187 186 186 186 185 184 183 181 180 180 179 179 178 177 177 178 178 178 178 180 181 180 180 178 172 165 163 167 172 184 196 204 210 212 213 216 217 218 217 217 223 228
188 188 188 188 188 186 186 184 183 183 183 183 181 180 180 181 181 181 182 184 184 184 184 181 174 169 171 177 184 193 203 209 213 214 215 219 223 224 225 225 226 230
189 190 190 191 190 189 188 188 187 186 186 185 184 183 182 182 184 184 185 187 187 188 187 183 177 176 180 186 192 199 205 210 213 215 217 222 225 227 229 229 229 232
190 191 192 193 193 192 191 190 189 189 188 188 187 186 184 184 185 187 189 190 192 192 189 185 183 185 187 190 196 201 205 210 215 218 222 225 228 231 232 232 234 237
192 193 193 194 195 193 192 192 192 191 190 190 190 188 187 186 187 190 191 193 196 196 191 187 188 191 192 193 198 203 207 214 218 221 225 228 230 235 237 239 241 243
194 194 194 195 196 195 194 194 194 194 193 191 192 191 190 189 190 192 194 197 199 197 192 191 192 193 195 197 200 204 210 216 221 224 227 230 234 238 241 246 247 248
195 196 196 196 197 196 195 196 196 196 195 193 193 194 194 193 193 194 195 198 200 198 195 194 194 197 199 200 200 204 210 217 223 225 228 232 237 243 246 249 251 251
196 196 197 197 197 196 196 197 197 197 196 196 195 196 196 197 197 197 197 198 199 199 197 196 197 200 203 203 203 205 211 218 223 226 230 235 239 245 250 250 250 252
196 197 197 198 198 198 198 198 198 198 198 197 197 198 198 199 199 200 201 200 199 199 198 198 200 202 205 207 206 207 213 219 224 228 230 235 241 246 250 251 250 250
197 197 198 198 199 199 199 199 200 200 199 199 199 199 200 201 202 203 203 202 202 201 200 201 201 203 206 209 209 210 215 220 225 230 232 237 243 246 249 251 250 250
199 198 199 200 200 200 201 201 201 201 201 201 201 202 202 203 205 206 205 204 204 204 203 203 203 204 208 212 214 214 217 222 226 231 235 239 244 247 248 249 250 251
200 200 200 201 201 202 202 202 202 203 203 204 204 204 205 206 207 208 207 205 205 205 205 206 205 207 211 214 217 218 221 224 227 232 237 241 244 247 248 249 250 251
202 202 202 202 203 203 204 204 204 205 206 206 207 206 207 208 209 209 209 208 208 207 209 209 208 209 213 217 219 222 226 228 229 231 237 241 245 246 248 251 253 254
204 204 204 204 205 205 205 206 207 208 208 208 209 209 210 210 211 211 211 211 210 210 212 213 211 210 214 219 221 223 228 232 234 233 235 241 245 246 248 252 255 256
207 206 205 206 206 206 207 208 209 210 210 210 211 212 213 213 214 215 215 213 213 213 214 215 214 213 216 221 223 224 225 230 236 239 239 242 246 248 250 252 254 256
208 207 206 207 207 208 210 211 212 213 213 213 213 214 214 215 217 217 217 217 216 216 217 217 216 215 218 222 224 225 225 227 234 239 241 244 248 250 251 252 254 256
210 209 209 209 210 212 214 215 215 215 215 215 216 217 218 219 220 220 221 221 221 220 221 221 219 218 221 224 225 225 226 229 234 238 241 245 249 251 252 252 253 256
213 212 213 213 214 217 218 218 218 218 219 219 219 221 222 222 223 223 224 225 225 225 225 225 224 223 224 226 227 226 227 231 234 236 240 244 248 250 252 252 253 255
216 216 216 217 219 221 221 222 222 222 222 222 223 224 224 225 226 227 228 229 229 229 229 229 229 228 228 229 229 228 228 232 234 236 240 245 247 249 251 253 253 255